Crossville, TN

5:29 PM CDT on September 24, 2017 (GMT -0500)
Crossville Memorial-Whitson

Weather History for KCSV - March, 2013

Change the Weather History Date:

Tuesday, March 26, 2013

  Actual Average Record
Temperature  
Mean Temperature 31 °F 50 °F  
Max Temperature 33 °F 61 °F 80 °F (2007)
Min Temperature 28 °F 40 °F 11 °F (1955)
Degree Days  
Heating Degree Days 34    
Month to date heating degree days 656  
Since 1 July heating degree days 3793  
Cooling Degree Days 0    
Month to date cooling degree days 0  
Year to date cooling degree days 0  
Moisture  
Dew Point 25 °F    
Average Humidity 76    
Maximum Humidity 85    
Minimum Humidity 66    
Precipitation  
Precipitation 0.01 in 0.18 in 1.88 in (1959)
Month to date precipitation 4.29 4.10  
Year to date precipitation 13.84 13.32  
Sea Level Pressure  
Sea Level Pressure 30.14 in    
Wind  
Wind Speed 8 mph (NW)    
Max Wind Speed 15 mph    
Max Gust Speed 21 mph    
Visibility 6 miles    
Events Snow    
T = Trace of Precipitation, MM = Missing Value Source: NWS Daily Summary

Daily Weather History Graph

Daily Weather History Graph

Search for Another Location

Airport or City:

Trip Planner

Search our weather history database for the weather conditions in past years. The results will help you decide how hot, cold, wet, or windy it might be!

Date:

Astronomy

Mar. 26, 2013 Rise Set
Actual Time 6:34 AM CDT 6:57 PM CDT
Civil Twilight 6:09 AM CDT 7:23 PM CDT
Nautical Twilight 5:39 AM CDT 7:53 PM CDT
Astronomical Twilight 5:08 AM CDT 8:23 PM CDT
Moon 6:32 PM CDT (3/26) 5:50 AM CDT (3/26)
Length of Visible Light 13h 13m
Length of Day
12h 22m
Waxing Gibbous, 99% of the Moon is Illuminated
Mar 26
Waxing Gibbous
Mar 27
Full
Apr 2
Last Quarter
Apr 10
New
Apr 18
First Quarter

Hourly Weather History & Observations

Time (CDT) Temp. Windchill Dew Point Humidity Pressure Visibility Wind Dir Wind Speed Gust Speed Precip Events Conditions
12:16 AM 28.4 °F 19.1 °F 24.8 °F 86% 30.01 in 5.0 mi WNW 10.4 mph 17.3 mph 0.00 in Snow Light Snow
12:53 AM 28.0 °F 18.1 °F 25.0 °F 88% 30.05 in 6.0 mi WNW 11.5 mph 18.4 mph 0.00 in Snow Light Snow
1:00 AM 28.4 °F 19.1 °F 24.8 °F 86% 30.01 in 6.0 mi WNW 10.4 mph 19.6 mph N/A   Overcast
1:53 AM 28.0 °F 17.5 °F 24.1 °F 85% 30.06 in 9.0 mi NW 12.7 mph 20.7 mph N/A   Overcast
2:01 AM 28.4 °F 19.1 °F 24.8 °F 86% 30.02 in 9.0 mi NW 10.4 mph 20.7 mph N/A   Overcast
2:36 AM 28.4 °F 19.7 °F 24.8 °F 86% 30.02 in 2.5 mi NW 9.2 mph - 0.01 in Snow Light Snow
2:43 AM 28.4 °F 19.7 °F 24.8 °F 86% 30.02 in 5.0 mi NW 9.2 mph - 0.01 in   Overcast
3:22 AM 28.4 °F 19.7 °F 24.8 °F 86% 30.01 in 2.5 mi NW 9.2 mph - 0.01 in Snow Light Snow
3:29 AM 28.4 °F 22.2 °F 24.8 °F 86% 30.01 in 2.5 mi NW 5.8 mph 16.1 mph 0.01 in Snow Light Snow
3:42 AM 28.4 °F 19.1 °F 24.8 °F 86% 30.01 in 3.0 mi NW 10.4 mph - 0.01 in Snow Light Snow
3:49 AM 28.4 °F 20.4 °F 24.8 °F 86% 30.01 in 2.5 mi NW 8.1 mph - 0.01 in Snow Light Snow
3:53 AM 28.0 °F 21.7 °F 24.1 °F 85% 30.06 in 2.5 mi NW 5.8 mph - 0.01 in Snow Light Snow
4:00 AM 28.4 °F 21.2 °F 24.8 °F 86% 30.01 in 3.0 mi NW 6.9 mph - 0.00 in Snow Light Snow
4:53 AM 28.0 °F 16.5 °F 24.1 °F 85% 30.06 in 9.0 mi NW 15.0 mph 19.6 mph 0.00 in   Overcast
5:53 AM 28.0 °F 20.0 °F 24.1 °F 85% 30.07 in 8.0 mi NW 8.1 mph - 0.00 in   Overcast
6:53 AM 28.0 °F 20.0 °F 25.0 °F 88% 30.09 in 6.0 mi NW 8.1 mph - N/A   Overcast
7:53 AM 28.9 °F 21.1 °F 25.0 °F 85% 30.12 in 3.0 mi NW 8.1 mph - N/A   Overcast
8:33 AM 28.4 °F 20.4 °F 26.6 °F 93% 30.10 in 2.0 mi NW 8.1 mph - 0.00 in Snow Light Snow
8:53 AM 28.9 °F 21.9 °F 25.0 °F 85% 30.15 in 4.0 mi NW 6.9 mph - 0.00 in   Overcast
9:06 AM 30.2 °F 23.4 °F 24.8 °F 80% 30.11 in 8.0 mi NW 6.9 mph 16.1 mph N/A   Overcast
9:53 AM 30.0 °F 20.5 °F 24.1 °F 79% 30.17 in 10.0 mi NW 11.5 mph - N/A   Overcast
10:34 AM 30.2 °F 20.8 °F 24.8 °F 80% 30.14 in 9.0 mi NW 11.5 mph 19.6 mph 0.00 in   Overcast
10:48 AM 30.2 °F 21.3 °F 24.8 °F 80% 30.14 in 2.5 mi NW 10.4 mph - 0.00 in Snow Light Snow
10:53 AM 30.9 °F 22.2 °F 24.1 °F 76% 30.19 in 4.0 mi NW 10.4 mph - 0.00 in Snow Light Snow
11:00 AM 30.2 °F 20.2 °F 24.8 °F 80% 30.14 in 7.0 mi NW 12.7 mph - 0.00 in   Overcast
11:30 AM 30.2 °F 23.4 °F 24.8 °F 80% 30.15 in 1.8 mi NW 6.9 mph - 0.00 in Snow Light Snow
11:39 AM 30.2 °F 22.6 °F 24.8 °F 80% 30.16 in 3.0 mi NW 8.1 mph - 0.00 in Snow Light Snow
11:46 AM 30.2 °F 22.6 °F 24.8 °F 80% 30.16 in 1.8 mi NW 8.1 mph - 0.00 in Snow Light Snow
11:53 AM 30.9 °F 22.8 °F 26.1 °F 82% 30.20 in 1.8 mi NW 9.2 mph - 0.00 in Snow Light Snow
11:55 AM 30.2 °F 22.6 °F 24.8 °F 80% 30.15 in 2.5 mi NW 8.1 mph 17.3 mph 0.00 in Snow Light Snow
12:02 PM 32.0 °F 26.4 °F 24.8 °F 75% 30.15 in 9.0 mi Variable 5.8 mph 17.3 mph 0.00 in   Overcast
12:10 PM 32.0 °F 24.2 °F 24.8 °F 75% 30.16 in 7.0 mi NW 9.2 mph - 0.00 in   Overcast
12:36 PM 30.2 °F 22.6 °F 24.8 °F 80% 30.16 in 1.8 mi WNW 8.1 mph - 0.00 in Snow Light Snow
12:47 PM 30.2 °F 22.6 °F 24.8 °F 80% 30.16 in 3.0 mi NNW 8.1 mph - 0.00 in Snow Light Snow
12:53 PM 32.0 °F 24.8 °F 25.0 °F 75% 30.21 in 7.0 mi NW 8.1 mph - 0.00 in   Overcast
1:53 PM 32.0 °F 25.6 °F 23.0 °F 69% 30.22 in 9.0 mi WNW 6.9 mph - 0.00 in   Overcast
2:38 PM 32.0 °F 24.2 °F 24.8 °F 75% 30.17 in 4.0 mi WNW 9.2 mph - 0.00 in Snow Light Snow
2:53 PM 32.0 °F 24.2 °F 25.0 °F 75% 30.18 in 3.0 mi NW 9.2 mph - 0.00 in Snow Light Snow
3:37 PM 32.0 °F 22.5 °F 24.8 °F 75% 30.18 in 10.0 mi NW 12.7 mph 19.6 mph 0.00 in   Overcast
3:53 PM 32.0 °F 24.2 °F 24.1 °F 73% 30.22 in 10.0 mi West 9.2 mph - 0.00 in   Overcast
4:16 PM 32.0 °F 23.6 °F 24.8 °F 75% 30.18 in 8.0 mi WNW 10.4 mph - 0.00 in Snow Light Snow
4:35 PM 32.0 °F 23.6 °F 24.8 °F 75% 30.19 in 8.0 mi WNW 10.4 mph - 0.00 in   Overcast
4:53 PM 33.1 °F 26.1 °F 25.0 °F 72% 30.23 in 10.0 mi West 8.1 mph - 0.00 in   Overcast
5:14 PM 32.0 °F 24.2 °F 24.8 °F 75% 30.19 in 10.0 mi West 9.2 mph - N/A   Overcast
5:26 PM 32.0 °F 24.2 °F 24.8 °F 75% 30.19 in 10.0 mi NW 9.2 mph - N/A   Overcast
5:53 PM 32.0 °F 24.8 °F 24.1 °F 73% 30.25 in 10.0 mi WNW 8.1 mph - N/A   Overcast
6:53 PM 32.0 °F 25.6 °F 23.0 °F 69% 30.26 in 10.0 mi WNW 6.9 mph - N/A   Overcast
7:53 PM 32.0 °F 26.4 °F 25.0 °F 75% 30.28 in 10.0 mi West 5.8 mph - N/A   Overcast
8:53 PM 30.9 °F 25.2 °F 24.1 °F 76% 30.30 in 10.0 mi WNW 5.8 mph - N/A   Mostly Cloudy
9:53 PM 30.9 °F 24.3 °F 25.0 °F 79% 30.31 in 9.0 mi WNW 6.9 mph - N/A   Overcast
10:53 PM 30.9 °F 25.2 °F 25.0 °F 79% 30.31 in 10.0 mi WNW 5.8 mph - N/A   Overcast
11:53 PM 30.9 °F 25.2 °F 25.0 °F 79% 30.31 in 10.0 mi WNW 5.8 mph - N/A   Overcast